sat.trackr.live / text

‹ back to catalog

STARLINK-34713

NORAD 64906 · 2025-157C

PAYLOAD ACTIVE UNKNOWN

§ Identity

Operator
Country
US
Launch date
2025-07-26
Launch site
AFETR
Launch vehicle
Mass (kg)
RCS (m²)

Purposes: comms

External: N2YO · Heavens-Above · Gunter

§ Orbital elements

Epoch: 2026-09-20T10:45:05.101344Z

Period
93.85 min
Inclination
53.1569°
Eccentricity
0.0001584
Mean motion
15.34406363 rev/d
Perigee alt
461.6 km
Apogee alt
463.8 km
Semi-major
6,840.8 km
B*
4.8050e-4
RAAN
158.0971°
Arg perigee
89.2229°
Mean anomaly
270.8955°
Rev number
6,593

§ Raw data

STARLINK-347131 64906U 25157C   26263.44797571  .00015896  00000+0  48050-3 0  99962 64906  53.1569 158.0971 0001584  89.2229 270.8955 15.34406363 65931

JSON: /api/v1/satellites/64906 · /tle

For live sub-satellite position, see the globe view (requires WebGL).

§ Visibility from observer

Set your observer location to see the next 7 days of passes ≥ 10°. The values pass through the URL so the page stays shareable.

No JS? Fill the form by hand. The geolocation button needs JavaScript.